Terminal Aerodrome Forecast
Issued by NWS Buffalo, NY

Home | Current Version | Previous Version | Text Only | Print | Product List | Glossary On
Versions: 1 2 3 4 5 6 7 8 9 10 11 12 13 14 15 16 17 18 19 20 21 22 23 24 25 26 27 28 29
709
FTUS41 KBUF 091431 AAA
TAFROC
TAF AMD
KROC 091431Z 0915/1012 25007KT 6SM -SN BKN025
     FM091700 23006KT P6SM SCT025 BKN040
     FM091900 26008KT P6SM VCSH SCT025 BKN040
     FM100200 24008KT P6SM VCSH BKN025=

USA.gov is the U.S. government's official web portal to all federal, state and local government web resources and services.